GFSSE_sfc_30mbdewp_159.txt.gz
Dewpoint
68 70 71 71 72 71 71 72 72 72 72 72 73 72 72 72 72 73 73 72 72 72 73 72 73 72 71 72 73 73 72 72 73 73 73 72 72 71 72 72 72 72 72
69 70 71 71 71 71 71 72 72 71 71 71 70 72 72 72 72 72 73 71 72 72 72 71 71 72 72 73 72 73 73 73 72 72 72 72 72 72 72 71 71 72 72
69 70 71 71 71 71 71 71 71 71 72 72 72 72 71 71 72 72 72 72 71 72 71 73 73 73 72 72 72 72 72 72 73 71 71 70 71 71 72 72 72 72 71
69 69 70 72 71 71 70 69 70 71 72 72 71 71 70 71 72 71 72 72 72 72 72 73 72 72 71 72 71 71 72 72 72 72 70 68 67 69 69 70 70 70 71
69 71 71 72 71 71 70 70 71 71 71 70 71 71 71 71 72 72 71 71 71 71 71 71 72 72 72 72 72 72 71 71 71 71 71 69 70 71 71 72 72 71 70
68 70 70 71 71 71 71 70 70 70 70 69 69 69 70 70 71 72 72 72 72 73 72 72 72 72 72 71 71 70 71 71 72 71 68 70 70 72 72 71 70 69 68
67 69 69 69 70 71 70 70 70 71 71 71 71 71 71 70 71 72 72 72 73 72 72 72 72 70 69 70 71 72 72 72 71 70 69 68 70 71 71 70 70 68 66
65 67 68 68 69 70 70 71 71 71 71 70 70 69 68 68 70 72 72 72 72 71 72 72 71 68 68 70 71 72 71 71 70 68 68 69 70 70 70 71 71 70 70
64 66 67 68 67 68 70 70 70 70 70 69 69 69 69 69 70 72 72 72 71 71 71 71 70 68 69 70 71 71 72 72 72 67 67 68 70 71 71 72 72 72 69
64 66 67 67 67 67 69 70 70 69 69 69 68 69 70 71 72 72 72 72 71 70 70 70 70 70 70 70 71 71 72 72 68 67 67 68 71 72 72 72 72 72 70
62 64 66 66 66 67 69 70 70 69 68 68 69 70 71 72 72 70 71 71 70 70 70 70 71 71 71 71 72 72 72 68 61 67 68 68 72 72 71 71 72 73 70
61 62 64 65 65 67 68 68 68 68 68 68 69 69 70 69 70 70 71 70 70 70 70 71 72 71 71 70 68 71 67 67 67 66 68 70 73 70 70 71 71 73 73
60 60 64 63 66 67 68 67 68 69 69 69 70 70 69 69 69 69 70 70 70 70 71 69 69 70 70 69 68 68 66 65 59 61 65 70 72 69 69 70 71 72 72
58 60 62 61 65 68 68 66 67 70 71 70 70 69 68 68 68 67 67 69 68 69 69 69 67 68 68 68 67 63 66 63 64 62 65 70 70 70 69 70 72 73 72
57 58 60 63 65 65 70 69 67 66 67 69 69 68 68 68 68 69 64 66 63 67 69 67 66 66 65 55 62 61 63 61 66 66 69 72 67 67 70 71 71 71 71
57 56 57 62 67 69 69 69 69 67 68 68 68 65 69 70 69 68 66 66 66 64 66 70 67 66 63 54 64 62 61 65 67 67 67 69 69 68 72 72 70 71 72
63 60 62 65 68 68 67 68 69 69 68 67 66 66 67 70 66 63 64 66 68 68 65 68 68 67 67 65 56 61 66 69 64 62 61 68 70 71 71 72 72 73 72
63 63 66 65 67 67 67 67 68 66 68 66 65 69 63 68 64 64 64 66 68 69 71 69 66 56 60 64 53 66 68 69 69 65 56 66 69 71 70 73 72 72 72
63 64 62 61 65 66 66 67 66 65 68 66 66 67 60 66 69 60 61 68 70 69 70 60 66 57 62 59 59 64 66 64 67 67 66 66 69 71 69 72 71 70 72
64 63 63 63 63 65 67 63 60 64 66 67 67 65 69 68 70 69 69 70 65 67 71 71 70 70 70 62 63 65 64 65 67 64 67 66 70 69 68 69 69 68 70
61 61 61 64 63 67 67 64 62 65 66 64 67 66 68 66 69 67 70 70 66 68 68 67 70 69 67 67 65 63 62 61 63 65 67 67 68 68 69 71 69 66 69
61 62 63 62 65 66 65 67 66 66 68 66 67 69 67 67 70 68 70 70 70 68 68 67 69 69 69 68 62 64 57 58 62 63 67 68 63 67 69 70 69 71 70
62 63 65 65 63 67 65 66 67 66 66 65 66 65 67 68 69 68 69 70 68 71 69 68 70 69 67 67 67 63 60 58 63 63 62 65 65 67 70 70 69 70 71
64 64 66 66 66 65 67 67 65 64 62 64 59 63 68 69 69 69 69 69 67 69 70 70 69 70 71 68 67 68 65 63 59 57 62 63 66 64 67 67 63 66 70
61 65 67 68 67 66 69 68 65 67 65 66 69 65 69 69 68 69 70 68 68 70 70 69 71 71 70 69 68 67 66 67 68 65 60 62 64 66 67 66 63 71 71
63 61 67 69 68 67 67 69 67 67 65 65 64 67 68 70 69 69 69 68 70 71 70 70 71 70 70 68 69 69 67 66 65 62 61 63 62 64 67 68 64 71 72

GFSSE_sfc_30mbdewp_162.txt.gz
Dewpoint
69 71 72 71 72 72 72 73 72 72 72 73 72 73 73 72 72 73 73 73 73 72 72 72 72 73 73 73 72 71 71 71 70 71 72 72 72 72 73 72 72 72 72
70 72 72 72 72 72 72 72 72 72 72 72 73 72 72 72 73 73 72 72 72 72 73 72 72 72 72 73 72 71 71 72 72 72 72 72 71 71 72 72 72 72 72
70 71 72 72 72 72 72 71 71 71 71 72 72 72 72 72 72 72 71 72 72 72 71 72 72 73 72 72 72 72 73 72 72 72 72 72 72 71 72 72 72 72 72
70 70 72 72 71 71 71 72 72 71 72 73 71 70 71 72 73 72 72 71 72 71 73 73 73 72 72 72 72 72 72 73 72 71 70 70 69 71 72 72 72 72 72
69 70 72 72 72 70 71 71 71 72 72 72 71 71 72 72 71 71 72 72 72 73 73 72 71 71 71 71 71 71 70 71 71 71 71 68 68 69 70 70 71 71 71
70 71 72 71 71 71 71 71 71 71 71 71 71 71 72 72 71 72 71 71 71 71 72 72 72 72 72 72 71 71 71 71 72 71 71 70 70 71 72 71 71 70 69
69 69 71 71 71 71 70 71 71 70 69 70 71 71 71 72 72 72 72 72 73 73 73 72 72 71 70 70 71 72 72 70 71 70 69 71 70 72 71 70 68 67 67
68 69 69 71 71 70 70 71 71 70 71 71 71 71 71 72 72 73 73 73 72 72 72 72 71 69 69 70 71 71 70 71 71 70 70 69 71 72 72 71 70 70 70
67 67 68 69 70 70 71 71 71 71 71 70 69 68 70 71 72 72 72 72 72 71 72 71 71 70 69 70 71 71 72 69 66 69 69 69 71 71 70 71 71 71 71
66 67 67 68 68 70 71 71 72 71 70 70 70 70 71 71 73 73 73 72 72 71 71 71 71 70 70 70 71 72 70 67 62 64 68 68 70 71 71 72 72 71 70
65 66 67 67 67 68 70 70 70 70 69 69 69 71 71 72 72 71 72 71 71 70 70 71 71 72 72 71 72 72 67 65 60 61 62 69 69 71 72 72 72 71 70
63 65 65 66 66 68 70 70 69 69 68 68 68 69 69 69 70 71 71 72 71 70 70 71 71 71 71 71 69 69 63 63 60 60 67 70 69 72 72 71 72 72 72
62 63 64 65 66 67 67 68 67 67 67 67 69 70 69 68 68 68 70 70 70 70 69 70 69 69 68 69 70 70 66 66 64 66 67 66 70 71 71 71 71 73 72
61 61 62 64 66 67 67 66 67 68 70 70 69 69 68 67 68 68 68 67 68 68 68 70 68 66 68 69 68 69 68 67 68 65 64 66 68 71 70 70 71 73 73
59 60 61 62 65 67 67 65 66 67 68 69 70 69 69 68 68 66 65 65 65 66 68 68 69 68 68 62 65 63 68 66 67 67 65 67 72 70 70 72 72 72 70
58 58 59 61 64 66 69 69 66 67 67 68 68 68 69 69 69 65 65 62 65 66 64 64 68 68 67 66 64 66 67 66 67 68 69 70 71 70 71 72 71 71 72
56 57 58 59 64 66 67 68 68 69 68 67 67 69 68 68 68 66 61 64 67 68 67 68 70 67 62 63 64 68 64 66 67 68 67 66 70 70 72 72 72 73 72
56 56 56 57 63 67 67 67 67 68 67 66 66 67 69 66 65 62 62 64 67 68 69 70 67 59 66 65 61 67 66 62 63 69 67 65 70 70 73 73 73 73 72
61 58 58 64 65 66 67 67 68 66 67 67 66 68 65 63 63 64 63 65 68 68 70 65 66 63 66 62 62 66 67 65 64 67 66 67 68 70 70 73 72 71 73
63 64 64 65 64 66 67 67 64 64 66 68 67 66 64 63 66 62 60 67 69 67 70 69 69 69 69 65 62 66 66 65 64 63 66 67 68 70 69 70 71 70 70
62 64 63 62 63 66 66 63 60 61 64 64 67 66 66 68 68 69 70 70 67 68 67 67 70 69 68 66 63 63 61 62 63 65 68 69 70 69 68 69 68 65 68
62 64 63 63 63 66 66 65 65 65 66 65 68 66 68 68 69 68 68 69 69 67 68 66 68 68 69 68 62 63 58 60 65 67 68 67 67 70 69 70 67 67 69
62 63 63 63 64 66 66 66 67 67 66 66 66 66 67 67 69 68 70 69 68 70 69 68 69 69 66 67 68 62 58 57 62 64 64 67 66 66 70 70 69 71 71
62 63 64 62 64 66 66 65 65 63 63 65 64 64 65 68 69 68 69 70 68 68 68 70 69 70 69 66 67 67 65 63 59 58 64 64 66 66 69 69 67 68 72
64 63 65 64 64 65 67 67 64 65 64 65 67 66 63 69 69 69 69 69 68 69 68 70 70 71 70 68 67 68 66 66 67 63 60 62 65 67 68 67 63 66 72
63 63 66 66 65 64 66 68 66 66 65 65 65 66 65 69 69 70 69 68 68 69 70 70 70 70 69 69 69 68 67 66 65 62 62 62 62 65 68 68 65 71 71

GFSSE_sfc_30mbdewp_168.txt.gz
Dewpoint
68 70 73 72 72 72 72 72 72 73 72 72 72 71 71 71 72 73 73 73 73 73 73 72 72 72 72 72 72 72 72 71 72 72 72 72 72 73 73 73 72 71 72
70 71 72 72 72 72 72 72 73 73 73 72 72 72 72 72 72 73 73 73 73 72 73 73 73 72 72 72 71 72 71 71 72 72 72 71 71 72 72 71 72 72 72
70 71 72 72 72 73 73 72 72 72 72 73 73 72 73 73 73 72 72 72 72 72 72 72 72 73 72 72 71 72 72 73 72 72 73 72 71 72 72 72 72 72 72
70 71 72 73 72 72 73 73 72 72 72 72 73 73 73 72 72 72 72 72 72 71 72 72 72 72 72 71 72 72 72 72 72 72 71 71 71 72 70 71 72 72 71
70 71 72 72 72 72 72 72 72 72 72 73 72 72 72 72 72 72 72 72 73 73 72 72 72 72 71 72 72 72 71 71 71 71 68 69 68 69 69 66 71 71 70
70 71 72 72 72 72 72 72 72 72 72 71 71 72 73 72 72 72 72 71 73 72 71 71 71 71 71 71 70 70 70 71 71 72 72 69 69 66 69 69 68 68 68
69 71 70 71 71 72 72 72 72 72 72 72 72 72 72 72 72 72 71 73 72 71 72 72 71 70 70 70 70 69 70 70 72 72 71 71 69 69 69 68 68 66 67
69 70 71 71 72 71 72 71 71 72 71 71 72 72 72 72 72 71 71 71 72 72 72 72 71 70 69 70 71 69 69 71 70 69 71 71 71 71 68 67 68 68 67
69 69 70 69 70 71 71 71 71 71 71 72 72 72 72 72 72 72 72 72 71 72 72 71 71 70 70 71 71 71 70 71 68 68 70 70 71 71 69 68 67 69 70
67 68 69 70 71 70 71 70 70 71 71 71 71 71 73 72 72 72 73 72 72 72 71 71 71 71 72 72 71 71 72 71 67 68 69 69 70 69 69 68 67 68 68
66 67 67 68 69 70 70 68 66 65 70 70 71 72 73 72 72 72 72 72 71 71 71 71 72 72 72 72 72 71 71 69 63 63 64 69 69 68 68 67 67 68 68
65 66 66 67 67 68 69 69 69 70 70 69 69 70 70 70 71 71 71 72 71 71 72 72 72 70 69 69 67 68 71 67 63 64 68 70 70 70 70 68 68 69 70
65 66 65 65 67 68 69 69 69 68 67 67 69 69 68 68 69 68 69 70 69 70 68 68 68 69 66 67 68 69 70 69 67 66 66 67 69 70 70 70 70 71 70
64 65 64 65 67 67 68 67 67 66 67 68 68 68 67 67 67 67 68 68 67 68 67 69 68 69 67 68 69 69 69 69 68 68 67 66 69 69 70 71 70 71 71
63 63 63 64 66 66 66 65 66 68 68 69 69 69 69 67 67 68 66 65 64 65 67 66 65 69 69 66 66 67 66 69 69 68 67 66 67 70 71 70 71 72 72
62 62 63 63 65 66 66 66 64 66 66 67 68 68 68 68 68 67 65 63 65 66 66 66 68 69 67 65 65 68 67 68 68 67 67 67 69 70 71 70 72 72 71
61 61 61 62 63 65 66 67 67 66 67 67 67 67 69 69 68 66 65 62 66 67 67 69 70 69 67 63 65 68 67 67 67 67 67 67 68 69 70 72 71 71 71
60 60 60 60 62 64 64 66 67 67 68 68 67 67 68 68 68 67 64 63 66 68 70 70 67 63 65 67 63 65 65 67 66 67 68 66 69 69 71 72 72 72 72
58 58 58 59 59 62 64 66 67 66 67 67 67 66 67 68 67 65 62 66 67 68 69 68 67 65 67 68 62 64 67 66 65 67 67 68 68 69 72 73 72 71 71
57 57 57 58 58 62 65 67 67 66 65 67 67 67 67 65 65 63 61 68 69 67 68 67 68 69 69 67 64 65 64 64 64 65 66 68 68 70 71 69 73 72 71
56 56 56 56 57 63 66 65 64 64 63 65 67 67 67 65 63 66 66 70 67 68 67 67 69 68 68 67 63 64 61 64 66 67 68 69 69 70 70 68 71 70 69
59 57 57 57 59 63 66 65 62 63 64 65 66 66 67 65 65 68 69 69 69 67 67 67 68 68 68 68 65 61 58 59 63 66 69 68 69 70 69 68 70 68 67
61 61 61 60 61 63 66 65 66 66 66 66 66 66 67 67 66 67 68 68 69 69 67 68 69 69 66 68 68 62 59 59 61 63 64 66 67 67 69 70 71 69 70
62 62 63 63 63 63 66 65 64 63 62 64 64 66 66 68 68 68 69 69 69 68 67 68 70 69 69 66 67 68 65 65 61 60 65 66 67 66 67 70 70 70 72
61 62 63 64 63 63 65 65 65 63 64 64 65 64 64 64 67 69 69 69 69 68 68 67 69 70 69 68 67 67 66 66 66 63 60 63 65 67 69 69 67 67 70
62 63 63 63 63 63 64 65 65 64 64 63 64 64 65 66 65 68 69 69 69 68 68 68 70 70 69 69 69 68 66 65 64 62 61 62 63 67 69 70 66 70 72

GFSSE_sfc_30mbdewp_171.txt.gz
Dewpoint
67 70 71 72 72 72 72 72 72 72 72 72 72 72 72 72 72 73 73 73 73 73 72 72 72 72 72 73 72 72 71 72 72 72 72 72 73 73 73 72 72 69 73
67 71 73 72 73 72 72 72 73 72 72 72 72 72 72 72 73 73 73 73 72 73 73 72 72 72 72 72 72 72 71 72 72 72 71 71 72 72 72 72 71 71 72
68 71 72 73 73 72 72 73 73 73 72 72 72 72 72 72 73 72 72 72 72 72 72 72 72 72 71 71 71 72 73 72 72 72 71 68 70 72 72 72 72 72 72
69 70 72 73 72 73 73 72 72 72 73 73 73 73 73 73 72 72 72 72 71 72 72 72 72 72 72 72 72 72 72 72 71 72 67 67 69 70 71 71 72 71 72
70 71 72 71 72 73 72 73 72 72 72 73 73 73 72 72 72 72 72 72 72 73 72 72 72 71 71 72 72 71 71 71 71 71 68 67 65 67 68 67 69 69 70
70 72 72 72 71 72 73 72 72 72 72 72 72 73 72 72 72 71 72 72 73 72 71 71 71 71 70 70 70 70 70 71 71 70 71 70 68 69 69 67 67 67 67
69 71 72 72 70 70 72 71 70 72 71 72 72 73 73 72 72 71 72 72 71 71 71 71 71 70 70 70 70 70 70 70 70 71 69 70 69 68 69 68 68 67 66
68 70 70 70 72 72 70 70 70 71 71 71 71 72 72 71 71 71 72 71 72 71 71 71 70 70 70 71 71 70 69 70 68 68 68 70 71 68 69 67 68 68 67
67 69 69 69 70 72 72 70 71 71 70 71 71 72 72 72 72 72 72 72 71 72 71 71 71 71 71 71 71 71 72 71 68 68 67 70 71 70 69 70 69 69 69
67 68 69 69 70 70 71 71 71 72 71 71 72 71 73 73 73 72 72 72 71 71 71 71 71 72 72 72 72 72 72 72 67 67 65 68 69 70 69 69 69 67 69
66 68 69 70 70 70 69 71 68 68 72 71 72 74 73 73 73 71 72 72 72 71 71 71 72 72 73 72 73 72 71 68 65 61 61 67 70 68 69 68 68 69 69
65 66 67 69 69 70 69 69 65 67 70 70 71 71 72 72 71 69 70 72 71 71 72 72 71 70 68 65 64 68 65 67 66 64 64 70 70 71 70 69 68 67 69
64 64 67 67 68 67 68 69 69 69 69 69 69 69 70 70 69 68 69 69 68 69 65 64 68 68 69 67 67 66 68 69 69 67 66 68 68 71 70 70 69 70 70
64 65 64 65 67 68 69 69 67 67 67 68 69 69 69 68 68 68 67 68 67 65 67 69 67 69 71 70 68 68 66 66 68 69 67 68 69 69 70 72 70 71 71
62 64 64 65 68 68 67 67 67 66 66 68 68 69 69 68 68 68 68 67 66 66 68 68 68 69 69 67 66 67 66 67 68 68 67 68 69 71 70 70 71 72 71
62 64 64 65 67 67 67 66 66 67 66 68 68 69 70 70 69 69 67 64 67 67 68 68 70 70 67 66 65 67 67 68 69 67 66 68 70 70 70 70 72 72 72
63 63 64 64 65 66 67 66 66 65 65 66 68 69 70 71 70 69 67 65 68 68 70 71 70 70 68 67 65 65 67 67 67 68 67 67 67 70 70 72 71 71 71
62 62 62 61 62 65 66 68 68 68 68 68 68 68 70 70 70 69 67 65 69 70 71 70 67 65 65 69 65 64 65 67 65 67 67 68 68 64 70 72 71 71 72
61 62 62 61 62 64 65 67 68 67 68 68 68 67 69 69 69 67 65 67 70 70 71 69 69 69 69 69 65 65 67 65 65 65 66 68 68 67 67 72 71 71 71
59 62 62 61 61 63 65 67 68 68 67 68 68 68 69 68 67 65 64 71 70 68 68 68 70 69 70 68 64 64 63 64 64 65 66 67 68 69 68 69 69 68 71
58 59 60 60 62 63 64 65 66 66 66 67 68 68 69 68 66 68 67 71 70 69 70 70 69 68 66 69 66 64 63 65 67 68 67 67 69 68 69 68 68 69 68
58 58 59 60 61 63 65 67 67 66 66 67 67 68 69 68 66 69 71 70 71 68 70 70 70 67 67 69 66 63 58 61 64 66 68 68 68 68 69 68 69 69 67
59 59 59 60 61 62 64 67 67 67 67 66 67 67 68 68 67 68 70 70 70 71 68 70 70 70 67 68 70 64 59 58 62 65 65 66 67 68 68 69 70 68 69
61 62 61 61 61 62 64 66 66 64 62 64 65 67 68 69 68 69 70 70 71 70 70 69 70 71 72 67 68 68 69 68 60 59 66 66 67 66 67 69 69 70 71
61 62 63 64 64 64 65 66 66 65 65 66 67 68 68 69 70 69 70 71 71 70 71 71 69 72 72 71 69 67 69 68 68 64 61 62 66 67 68 69 68 68 71
60 62 63 65 66 66 66 66 67 66 66 65 66 66 66 66 66 69 70 71 71 71 71 70 70 71 73 71 71 69 67 65 64 64 62 63 63 66 68 70 69 68 70